QPF
0.01 0.01 0.01 0.01 0.01 0.01 0.01 0.01 0.02 0.04 0.07 0.08 0.06 0.05 0.04 0.03 0.03 0.04 0.04 0.04 0.04 0.05 0.06 0.05 0.07 0.08 0.08 0.10 0.10 0.11 0.11 0.08 0.05 0.04 0.04 0.03 0.03 0.03 0.03 0.03 0.03 0.04 0.06
0.01 0.01 0.01 0.01 0.01 0.01 0.01 0.02 0.02 0.04 0.07 0.06 0.05 0.04 0.04 0.05 0.04 0.04 0.04 0.03 0.04 0.06 0.05 0.08 0.09 0.09 0.10 0.11 0.10 0.10 0.10 0.08 0.05 0.05 0.05 0.04 0.04 0.02 0.01 0.01 0.01 0.02 0.04
0.00 0.00 0.01 0.01 0.01 0.01 0.01 0.02 0.03 0.03 0.04 0.04 0.05 0.03 0.03 0.04 0.06 0.07 0.08 0.06 0.06 0.09 0.10 0.09 0.09 0.11 0.12 0.11 0.08 0.08 0.08 0.07 0.05 0.05 0.05 0.04 0.04 0.02 0.02 0.01 0.02 0.02 0.03
0.00 0.00 0.00 0.00 0.01 0.01 0.01 0.02 0.02 0.02 0.02 0.03 0.03 0.03 0.04 0.04 0.05 0.06 0.08 0.09 0.08 0.09 0.11 0.12 0.12 0.12 0.11 0.09 0.07 0.06 0.07 0.07 0.06 0.05 0.05 0.05 0.04 0.04 0.02 0.02 0.02 0.02 0.02
0.00 0.00 0.00 0.00 0.00 0.00 0.01 0.01 0.01 0.01 0.02 0.02 0.02 0.02 0.02 0.03 0.05 0.05 0.06 0.07 0.04 0.04 0.05 0.07 0.08 0.07 0.07 0.05 0.04 0.04 0.04 0.04 0.04 0.04 0.04 0.05 0.05 0.04 0.05 0.04 0.04 0.04 0.03
0.00 0.00 0.00 0.00 0.00 0.00 0.00 0.01 0.01 0.01 0.01 0.02 0.01 0.01 0.02 0.04 0.05 0.05 0.05 0.05 0.04 0.03 0.02 0.03 0.03 0.03 0.04 0.04 0.04 0.03 0.03 0.03 0.03 0.04 0.05 0.06 0.06 0.05 0.05 0.05 0.05 0.06 0.05
0.00 0.00 0.00 0.00 0.00 0.00 0.00 0.01 0.01 0.01 0.01 0.01 0.02 0.02 0.03 0.04 0.05 0.04 0.04 0.03 0.02 0.02 0.03 0.02 0.02 0.02 0.03 0.03 0.03 0.03 0.02 0.03 0.03 0.04 0.04 0.05 0.07 0.07 0.07 0.07 0.07 0.07 0.05
0.00 0.00 0.00 0.00 0.00 0.00 0.00 0.00 0.01 0.01 0.01 0.01 0.02 0.02 0.02 0.02 0.02 0.02 0.02 0.02 0.02 0.02 0.03 0.02 0.01 0.01 0.02 0.02 0.03 0.03 0.03 0.02 0.03 0.03 0.04 0.04 0.05 0.07 0.07 0.07 0.07 0.06 0.06
0.00 0.00 0.00 0.00 0.00 0.00 0.00 0.00 0.01 0.01 0.01 0.02 0.02 0.02 0.01 0.01 0.01 0.01 0.02 0.02 0.02 0.01 0.01 0.01 0.01 0.02 0.03 0.03 0.03 0.03 0.02 0.02 0.02 0.03 0.04 0.04 0.04 0.04 0.04 0.03 0.05 0.05 0.04
0.00 0.00 0.01 0.02 0.02 0.02 0.02 0.01 0.01 0.01 0.01 0.02 0.01 0.01 0.01 0.01 0.01 0.02 0.02 0.01 0.01 0.01 0.01 0.01 0.01 0.02 0.02 0.03 0.03 0.03 0.02 0.03 0.03 0.02 0.03 0.04 0.03 0.03 0.02 0.02 0.03 0.03 0.03
0.00 0.00 0.01 0.01 0.01 0.01 0.01 0.02 0.02 0.02 0.01 0.01 0.01 0.01 0.01 0.00 0.01 0.01 0.01 0.01 0.01 0.01 0.01 0.01 0.02 0.02 0.02 0.03 0.03 0.02 0.02 0.02 0.02 0.02 0.02 0.03 0.04 0.03 0.03 0.02 0.03 0.03 0.03
0.01 0.00 0.01 0.01 0.01 0.02 0.02 0.03 0.02 0.01 0.00 0.01 0.02 0.02 0.02 0.01 0.00 0.02 0.02 0.02 0.01 0.01 0.01 0.01 0.02 0.02 0.02 0.02 0.02 0.02 0.01 0.02 0.02 0.02 0.03 0.03 0.03 0.04 0.03 0.03 0.02 0.02 0.03
0.01 0.01 0.01 0.02 0.02 0.03 0.03 0.03 0.01 0.01 0.01 0.01 0.01 0.01 0.01 0.01 0.02 0.04 0.03 0.02 0.01 0.01 0.01 0.01 0.02 0.02 0.02 0.02 0.02 0.02 0.01 0.01 0.02 0.02 0.03 0.02 0.03 0.03 0.03 0.03 0.02 0.02 0.03
0.01 0.01 0.02 0.02 0.03 0.03 0.03 0.01 0.01 0.01 0.01 0.00 0.00 0.00 0.00 0.01 0.01 0.01 0.02 0.01 0.01 0.01 0.01 0.02 0.02 0.02 0.02 0.02 0.02 0.02 0.02 0.02 0.02 0.01 0.01 0.01 0.02 0.03 0.04 0.03 0.03 0.03 0.04
0.01 0.02 0.02 0.02 0.02 0.02 0.01 0.01 0.00 0.00 0.00 0.00 0.00 0.00 0.00 0.01 0.01 0.01 0.00 0.01 0.01 0.02 0.01 0.02 0.03 0.02 0.02 0.01 0.02 0.02 0.02 0.02 0.02 0.01 0.01 0.01 0.01 0.02 0.03 0.02 0.02 0.02 0.03
0.01 0.01 0.02 0.02 0.02 0.01 0.01 0.01 0.00 0.00 0.00 0.00 0.01 0.01 0.01 0.01 0.01 0.01 0.01 0.02 0.01 0.02 0.02 0.01 0.01 0.01 0.01 0.02 0.02 0.02 0.02 0.04 0.04 0.03 0.03 0.03 0.02 0.02 0.02 0.02 0.02 0.03 0.03
0.01 0.01 0.02 0.02 0.02 0.02 0.02 0.01 0.01 0.00 0.00 0.01 0.01 0.01 0.01 0.02 0.02 0.02 0.02 0.02 0.02 0.02 0.01 0.01 0.01 0.01 0.01 0.01 0.01 0.01 0.02 0.04 0.04 0.04 0.05 0.03 0.02 0.03 0.02 0.02 0.02 0.02 0.03
0.01 0.01 0.01 0.02 0.01 0.02 0.01 0.01 0.01 0.01 0.01 0.01 0.01 0.02 0.02 0.02 0.02 0.02 0.03 0.04 0.03 0.02 0.01 0.01 0.01 0.02 0.01 0.01 0.01 0.01 0.02 0.03 0.03 0.04 0.04 0.03 0.03 0.03 0.02 0.02 0.02 0.02 0.03
0.01 0.01 0.02 0.02 0.02 0.02 0.01 0.01 0.01 0.02 0.02 0.02 0.01 0.01 0.01 0.01 0.02 0.03 0.03 0.03 0.03 0.02 0.01 0.01 0.01 0.02 0.02 0.02 0.02 0.02 0.03 0.03 0.02 0.02 0.02 0.02 0.03 0.02 0.03 0.02 0.02 0.03 0.03
0.01 0.01 0.02 0.03 0.02 0.02 0.01 0.01 0.01 0.02 0.02 0.02 0.02 0.01 0.01 0.01 0.02 0.02 0.02 0.02 0.02 0.02 0.02 0.01 0.01 0.02 0.02 0.02 0.01 0.01 0.01 0.01 0.01 0.02 0.02 0.01 0.02 0.02 0.03 0.03 0.03 0.03 0.02
0.01 0.02 0.03 0.02 0.02 0.02 0.01 0.01 0.02 0.02 0.02 0.02 0.02 0.02 0.02 0.02 0.02 0.02 0.02 0.02 0.02 0.02 0.02 0.01 0.01 0.02 0.01 0.02 0.01 0.01 0.01 0.01 0.02 0.02 0.03 0.02 0.02 0.02 0.02 0.02 0.02 0.02 0.03
0.01 0.03 0.03 0.01 0.01 0.02 0.01 0.01 0.01 0.01 0.01 0.01 0.01 0.02 0.02 0.02 0.01 0.01 0.01 0.02 0.03 0.03 0.02 0.02 0.02 0.02 0.02 0.01 0.01 0.01 0.01 0.01 0.01 0.02 0.02 0.02 0.01 0.01 0.01 0.01 0.01 0.02 0.03
0.02 0.02 0.01 0.00 0.00 0.01 0.01 0.02 0.01 0.01 0.01 0.01 0.01 0.01 0.01 0.02 0.02 0.02 0.02 0.03 0.03 0.03 0.03 0.02 0.01 0.01 0.02 0.02 0.01 0.01 0.01 0.01 0.01 0.01 0.01 0.01 0.01 0.01 0.01 0.02 0.03 0.03 0.03
0.02 0.01 0.00 0.00 0.01 0.01 0.01 0.01 0.01 0.01 0.01 0.00 0.00 0.00 0.01 0.01 0.01 0.02 0.02 0.02 0.02 0.02 0.02 0.02 0.01 0.01 0.01 0.01 0.01 0.01 0.01 0.01 0.01 0.01 0.01 0.01 0.01 0.01 0.01 0.02 0.03 0.03 0.04
0.01 0.01 0.00 0.00 0.01 0.01 0.01 0.01 0.01 0.01 0.01 0.01 0.01 0.01 0.01 0.01 0.01 0.01 0.02 0.02 0.01 0.02 0.02 0.02 0.02 0.01 0.01 0.01 0.01 0.01 0.01 0.02 0.02 0.02 0.01 0.01 0.01 0.01 0.01 0.02 0.03 0.03 0.04
0.01 0.01 0.01 0.01 0.01 0.01 0.01 0.01 0.01 0.01 0.01 0.01 0.01 0.01 0.01 0.01 0.01 0.01 0.01 0.02 0.01 0.02 0.03 0.02 0.02 0.02 0.01 0.02 0.01 0.01 0.01 0.01 0.01 0.01 0.01 0.01 0.01 0.01 0.02 0.02 0.02 0.02 0.03
MSLP
1015.44 1015.57 1015.63 1015.66 1015.70 1015.77 1015.92 1016.18 1016.55 1017.01 1017.53 1018.05 1018.50 1018.86 1019.08 1019.17 1019.14 1019.02 1018.87 1018.72 1018.60 1018.53 1018.52 1018.56 1018.63 1018.72 1018.82 1018.91 1018.98 1019.04 1019.07 1019.07 1019.00 1018.87 1018.66 1018.37 1018.00 1017.57 1017.11 1016.66 1016.26 1015.95 1015.76
1015.77 1015.97 1016.10 1016.18 1016.24 1016.32 1016.45 1016.68 1017.01 1017.43 1017.90 1018.38 1018.81 1019.14 1019.34 1019.40 1019.33 1019.18 1018.98 1018.79 1018.63 1018.52 1018.48 1018.49 1018.55 1018.64 1018.74 1018.84 1018.94 1019.04 1019.12 1019.17 1019.18 1019.13 1019.00 1018.76 1018.42 1017.99 1017.48 1016.93 1016.39 1015.91 1015.53
1015.79 1016.08 1016.31 1016.48 1016.60 1016.71 1016.86 1017.07 1017.38 1017.77 1018.21 1018.65 1019.05 1019.34 1019.51 1019.54 1019.44 1019.25 1019.01 1018.77 1018.57 1018.42 1018.35 1018.35 1018.40 1018.49 1018.59 1018.71 1018.83 1018.96 1019.08 1019.19 1019.28 1019.31 1019.26 1019.10 1018.82 1018.41 1017.89 1017.28 1016.64 1016.02 1015.46
1015.53 1015.93 1016.27 1016.54 1016.75 1016.92 1017.11 1017.34 1017.64 1018.01 1018.42 1018.83 1019.20 1019.47 1019.61 1019.61 1019.48 1019.25 1018.97 1018.69 1018.45 1018.28 1018.18 1018.17 1018.21 1018.29 1018.40 1018.53 1018.66 1018.80 1018.96 1019.11 1019.25 1019.35 1019.38 1019.31 1019.11 1018.76 1018.26 1017.64 1016.94 1016.21 1015.51
1015.06 1015.57 1016.02 1016.40 1016.70 1016.95 1017.19 1017.44 1017.75 1018.10 1018.50 1018.89 1019.23 1019.48 1019.61 1019.59 1019.44 1019.18 1018.88 1018.58 1018.31 1018.11 1018.00 1017.97 1018.01 1018.09 1018.20 1018.32 1018.45 1018.58 1018.74 1018.90 1019.07 1019.22 1019.31 1019.32 1019.20 1018.93 1018.49 1017.90 1017.20 1016.42 1015.62
1014.47 1015.06 1015.61 1016.09 1016.48 1016.81 1017.09 1017.37 1017.68 1018.03 1018.41 1018.79 1019.12 1019.36 1019.48 1019.46 1019.31 1019.05 1018.74 1018.43 1018.15 1017.95 1017.83 1017.79 1017.82 1017.89 1017.98 1018.08 1018.19 1018.30 1018.42 1018.56 1018.72 1018.88 1019.01 1019.08 1019.04 1018.86 1018.51 1017.99 1017.33 1016.56 1015.73
1013.82 1014.47 1015.10 1015.65 1016.11 1016.49 1016.82 1017.12 1017.44 1017.78 1018.15 1018.51 1018.84 1019.08 1019.21 1019.21 1019.07 1018.84 1018.54 1018.24 1017.97 1017.77 1017.65 1017.61 1017.63 1017.69 1017.75 1017.82 1017.87 1017.92 1017.99 1018.07 1018.19 1018.32 1018.46 1018.56 1018.58 1018.49 1018.25 1017.84 1017.27 1016.56 1015.77
1013.19 1013.87 1014.53 1015.13 1015.63 1016.05 1016.39 1016.70 1017.01 1017.34 1017.70 1018.05 1018.37 1018.63 1018.78 1018.80 1018.70 1018.51 1018.25 1017.98 1017.74 1017.56 1017.45 1017.41 1017.42 1017.45 1017.48 1017.50 1017.49 1017.46 1017.44 1017.44 1017.47 1017.55 1017.66 1017.77 1017.84 1017.84 1017.70 1017.42 1016.98 1016.39 1015.69
1012.62 1013.30 1013.97 1014.57 1015.09 1015.51 1015.85 1016.15 1016.44 1016.75 1017.08 1017.42 1017.74 1018.00 1018.18 1018.24 1018.19 1018.05 1017.85 1017.62 1017.42 1017.27 1017.17 1017.14 1017.14 1017.15 1017.14 1017.10 1017.01 1016.90 1016.78 1016.68 1016.62 1016.62 1016.68 1016.78 1016.87 1016.93 1016.90 1016.76 1016.46 1016.03 1015.46
1012.15 1012.79 1013.44 1014.02 1014.52 1014.92 1015.24 1015.51 1015.77 1016.05 1016.34 1016.66 1016.97 1017.24 1017.44 1017.54 1017.54 1017.45 1017.31 1017.14 1016.98 1016.86 1016.79 1016.76 1016.75 1016.74 1016.69 1016.60 1016.45 1016.26 1016.04 1015.84 1015.69 1015.61 1015.60 1015.66 1015.76 1015.87 1015.93 1015.91 1015.77 1015.49 1015.08
1011.79 1012.38 1012.98 1013.51 1013.96 1014.33 1014.61 1014.84 1015.07 1015.30 1015.57 1015.85 1016.14 1016.40 1016.60 1016.73 1016.77 1016.73 1016.64 1016.52 1016.41 1016.32 1016.26 1016.24 1016.23 1016.20 1016.13 1016.00 1015.80 1015.55 1015.26 1014.99 1014.75 1014.59 1014.52 1014.54 1014.63 1014.76 1014.89 1014.97 1014.96 1014.83 1014.58
1011.57 1012.09 1012.61 1013.08 1013.47 1013.78 1014.02 1014.22 1014.40 1014.59 1014.82 1015.06 1015.31 1015.55 1015.75 1015.88 1015.94 1015.93 1015.87 1015.78 1015.70 1015.63 1015.60 1015.58 1015.57 1015.53 1015.45 1015.30 1015.08 1014.80 1014.49 1014.17 1013.88 1013.67 1013.54 1013.52 1013.59 1013.73 1013.89 1014.03 1014.12 1014.11 1013.99
1011.48 1011.92 1012.35 1012.74 1013.06 1013.32 1013.52 1013.68 1013.82 1013.98 1014.16 1014.36 1014.57 1014.77 1014.93 1015.04 1015.09 1015.08 1015.03 1014.96 1014.89 1014.83 1014.80 1014.79 1014.78 1014.75 1014.68 1014.54 1014.33 1014.06 1013.75 1013.43 1013.13 1012.89 1012.74 1012.69 1012.73 1012.84 1013.01 1013.18 1013.32 1013.39 1013.37
1011.54 1011.87 1012.21 1012.51 1012.77 1012.97 1013.13 1013.26 1013.38 1013.51 1013.65 1013.81 1013.96 1014.10 1014.22 1014.28 1014.29 1014.26 1014.19 1014.11 1014.03 1013.97 1013.94 1013.93 1013.92 1013.90 1013.85 1013.75 1013.58 1013.35 1013.08 1012.79 1012.52 1012.29 1012.13 1012.06 1012.07 1012.15 1012.29 1012.45 1012.60 1012.71 1012.74
1011.71 1011.95 1012.18 1012.40 1012.59 1012.74 1012.87 1012.98 1013.09 1013.20 1013.31 1013.42 1013.52 1013.60 1013.65 1013.65 1013.60 1013.52 1013.41 1013.30 1013.20 1013.12 1013.07 1013.06 1013.05 1013.05 1013.02 1012.96 1012.85 1012.69 1012.48 1012.26 1012.04 1011.84 1011.70 1011.61 1011.60 1011.64 1011.74 1011.86 1011.98 1012.08 1012.14
1011.98 1012.12 1012.26 1012.38 1012.51 1012.62 1012.73 1012.84 1012.94 1013.04 1013.13 1013.21 1013.26 1013.27 1013.25 1013.18 1013.06 1012.91 1012.75 1012.59 1012.45 1012.34 1012.27 1012.24 1012.24 1012.24 1012.24 1012.22 1012.17 1012.08 1011.95 1011.80 1011.65 1011.50 1011.38 1011.30 1011.26 1011.26 1011.31 1011.37 1011.44 1011.51 1011.54
1012.31 1012.35 1012.39 1012.44 1012.51 1012.59 1012.69 1012.80 1012.91 1013.01 1013.09 1013.14 1013.15 1013.11 1013.02 1012.88 1012.69 1012.48 1012.26 1012.05 1011.86 1011.72 1011.62 1011.57 1011.55 1011.55 1011.57 1011.58 1011.57 1011.54 1011.48 1011.40 1011.30 1011.20 1011.11 1011.03 1010.98 1010.94 1010.93 1010.93 1010.94 1010.94 1010.94
1012.64 1012.60 1012.56 1012.55 1012.57 1012.63 1012.72 1012.84 1012.96 1013.08 1013.16 1013.20 1013.18 1013.09 1012.94 1012.74 1012.50 1012.23 1011.95 1011.70 1011.47 1011.29 1011.16 1011.08 1011.04 1011.03 1011.04 1011.06 1011.07 1011.06 1011.05 1011.01 1010.96 1010.89 1010.82 1010.75 1010.67 1010.60 1010.54 1010.48 1010.42 1010.36 1010.30
1012.94 1012.83 1012.73 1012.66 1012.65 1012.69 1012.79 1012.92 1013.06 1013.20 1013.29 1013.32 1013.28 1013.17 1012.98 1012.74 1012.45 1012.14 1011.83 1011.54 1011.29 1011.08 1010.92 1010.81 1010.74 1010.70 1010.68 1010.68 1010.68 1010.67 1010.66 1010.63 1010.59 1010.53 1010.46 1010.38 1010.29 1010.19 1010.08 1009.96 1009.85 1009.73 1009.62
1013.17 1013.02 1012.87 1012.77 1012.74 1012.77 1012.87 1013.02 1013.18 1013.33 1013.43 1013.47 1013.43 1013.30 1013.09 1012.82 1012.51 1012.18 1011.86 1011.55 1011.28 1011.06 1010.88 1010.74 1010.64 1010.56 1010.50 1010.45 1010.41 1010.36 1010.31 1010.25 1010.19 1010.11 1010.02 1009.92 1009.81 1009.68 1009.54 1009.38 1009.22 1009.06 1008.90
1013.32 1013.16 1012.99 1012.87 1012.83 1012.86 1012.97 1013.12 1013.30 1013.46 1013.57 1013.61 1013.56 1013.43 1013.21 1012.94 1012.62 1012.29 1011.97 1011.66 1011.40 1011.17 1010.98 1010.83 1010.70 1010.58 1010.47 1010.36 1010.25 1010.14 1010.02 1009.90 1009.78 1009.65 1009.52 1009.39 1009.24 1009.09 1008.92 1008.74 1008.54 1008.35 1008.16
1013.43 1013.26 1013.10 1012.98 1012.93 1012.96 1013.07 1013.23 1013.40 1013.56 1013.67 1013.70 1013.65 1013.51 1013.30 1013.03 1012.72 1012.40 1012.09 1011.81 1011.56 1011.35 1011.17 1011.00 1010.85 1010.70 1010.54 1010.36 1010.18 1009.98 1009.78 1009.57 1009.37 1009.18 1008.99 1008.81 1008.63 1008.45 1008.26 1008.06 1007.86 1007.65 1007.43
1013.53 1013.38 1013.22 1013.11 1013.06 1013.09 1013.19 1013.34 1013.49 1013.63 1013.73 1013.74 1013.68 1013.53 1013.31 1013.04 1012.75 1012.45 1012.16 1011.91 1011.69 1011.50 1011.33 1011.18 1011.02 1010.84 1010.64 1010.41 1010.15 1009.87 1009.57 1009.27 1008.98 1008.71 1008.45 1008.22 1008.00 1007.80 1007.60 1007.40 1007.20 1006.98 1006.76
1013.66 1013.53 1013.39 1013.29 1013.24 1013.26 1013.34 1013.45 1013.58 1013.68 1013.74 1013.72 1013.63 1013.46 1013.24 1012.96 1012.67 1012.39 1012.13 1011.90 1011.71 1011.55 1011.42 1011.28 1011.12 1010.94 1010.71 1010.43 1010.11 1009.76 1009.38 1009.00 1008.62 1008.26 1007.94 1007.65 1007.40 1007.18 1006.97 1006.78 1006.59 1006.39 1006.18
1013.85 1013.74 1013.63 1013.53 1013.48 1013.47 1013.52 1013.59 1013.66 1013.71 1013.71 1013.65 1013.51 1013.31 1013.06 1012.78 1012.49 1012.21 1011.96 1011.76 1011.59 1011.46 1011.35 1011.23 1011.09 1010.91 1010.67 1010.38 1010.02 1009.61 1009.17 1008.71 1008.26 1007.84 1007.45 1007.12 1006.83 1006.59 1006.39 1006.22 1006.05 1005.88 1005.69
1014.12 1014.03 1013.93 1013.83 1013.76 1013.72 1013.72 1013.73 1013.74 1013.71 1013.65 1013.53 1013.34 1013.10 1012.81 1012.51 1012.20 1011.92 1011.68 1011.48 1011.33 1011.21 1011.12 1011.02 1010.90 1010.73 1010.49 1010.19 1009.81 1009.38 1008.90 1008.39 1007.89 1007.41 1006.98 1006.60 1006.29 1006.04 1005.85 1005.70 1005.56 1005.44 1005.30
Thickness
5813 5813 5810 5809 5805 5802 5798 5796 5793 5791 5789 5788 5786 5783 5782 5783 5783 5782 5779 5778 5777 5776 5774 5775 5772 5771 5770 5768 5768 5766 5764 5764 5764 5763 5762 5765 5767 5766 5765 5764 5764 5762 5760
5814 5812 5811 5809 5806 5802 5799 5797 5794 5793 5790 5788 5786 5784 5783 5783 5783 5782 5779 5778 5777 5776 5777 5774 5774 5772 5769 5767 5766 5764 5763 5763 5763 5760 5757 5756 5759 5762 5766 5764 5762 5761 5760
5817 5814 5812 5810 5808 5804 5801 5799 5795 5793 5791 5789 5788 5785 5783 5782 5782 5780 5780 5779 5777 5776 5775 5774 5773 5772 5771 5769 5765 5764 5761 5759 5761 5762 5757 5752 5751 5755 5761 5760 5760 5758 5757
5823 5819 5816 5812 5810 5808 5805 5801 5797 5794 5791 5789 5787 5784 5782 5780 5780 5780 5780 5779 5777 5776 5775 5774 5772 5771 5770 5767 5765 5765 5762 5758 5758 5760 5758 5755 5753 5748 5750 5756 5759 5757 5755
5828 5823 5820 5816 5814 5812 5808 5804 5799 5795 5792 5789 5787 5784 5783 5782 5782 5781 5778 5777 5777 5776 5775 5773 5771 5769 5768 5766 5763 5761 5759 5759 5757 5757 5756 5754 5752 5751 5746 5745 5749 5753 5755
5830 5827 5824 5820 5816 5814 5810 5806 5799 5795 5793 5790 5787 5784 5782 5780 5779 5777 5777 5777 5778 5777 5775 5773 5770 5769 5767 5764 5762 5760 5759 5757 5755 5755 5755 5753 5751 5749 5747 5744 5744 5746 5750
5832 5828 5824 5820 5816 5814 5810 5806 5800 5795 5793 5790 5788 5786 5783 5780 5777 5777 5776 5776 5777 5776 5773 5773 5769 5768 5765 5763 5761 5759 5757 5756 5753 5752 5753 5753 5752 5750 5748 5744 5743 5742 5746
5834 5830 5827 5822 5819 5815 5811 5806 5801 5796 5794 5791 5788 5786 5784 5783 5782 5778 5778 5776 5776 5775 5773 5770 5768 5766 5763 5762 5760 5759 5757 5755 5752 5752 5750 5750 5751 5750 5748 5744 5740 5737 5741
5833 5830 5828 5824 5820 5815 5811 5808 5802 5797 5794 5791 5788 5785 5784 5782 5781 5779 5777 5777 5774 5774 5772 5769 5767 5764 5762 5760 5758 5757 5754 5753 5752 5752 5750 5749 5750 5748 5747 5745 5741 5735 5732
5831 5829 5827 5823 5820 5816 5812 5808 5803 5797 5794 5791 5788 5787 5784 5782 5779 5778 5775 5774 5772 5770 5768 5766 5764 5762 5760 5758 5756 5755 5753 5751 5750 5748 5747 5745 5747 5746 5745 5743 5741 5737 5732
5827 5825 5823 5821 5818 5815 5811 5806 5802 5797 5793 5791 5788 5785 5783 5781 5778 5776 5774 5772 5770 5767 5765 5763 5762 5760 5758 5756 5754 5754 5751 5749 5748 5746 5745 5742 5741 5741 5742 5741 5738 5736 5733
5825 5823 5820 5817 5813 5810 5808 5804 5801 5797 5793 5790 5786 5783 5781 5779 5777 5775 5772 5769 5767 5765 5763 5761 5759 5758 5757 5754 5752 5750 5749 5747 5745 5743 5741 5739 5739 5736 5736 5735 5734 5733 5730
5818 5818 5814 5811 5808 5806 5803 5801 5799 5796 5794 5790 5784 5780 5778 5776 5774 5772 5769 5767 5764 5762 5760 5758 5756 5755 5753 5751 5750 5747 5746 5744 5742 5740 5738 5736 5734 5732 5732 5730 5730 5729 5729
5810 5809 5806 5804 5803 5801 5798 5797 5795 5794 5791 5786 5782 5778 5776 5773 5771 5769 5766 5763 5761 5759 5757 5755 5753 5752 5750 5748 5746 5744 5742 5740 5738 5737 5735 5733 5731 5728 5726 5726 5724 5723 5722
5802 5801 5799 5798 5797 5795 5794 5792 5790 5789 5786 5782 5779 5776 5774 5770 5767 5764 5762 5759 5757 5756 5754 5751 5750 5748 5746 5745 5741 5739 5738 5735 5734 5732 5731 5730 5727 5723 5721 5721 5720 5718 5716
5794 5795 5794 5792 5791 5790 5788 5787 5785 5783 5781 5777 5774 5772 5769 5766 5762 5760 5758 5755 5753 5751 5749 5746 5745 5744 5744 5738 5733 5731 5733 5731 5729 5728 5727 5726 5723 5719 5714 5712 5711 5710 5709
5788 5787 5787 5786 5785 5785 5784 5781 5779 5777 5775 5772 5770 5767 5764 5761 5758 5757 5754 5751 5748 5746 5743 5741 5740 5739 5737 5731 5727 5724 5726 5727 5726 5724 5722 5722 5722 5716 5714 5710 5706 5705 5702
5781 5781 5782 5781 5781 5781 5779 5777 5774 5770 5768 5765 5763 5761 5758 5755 5753 5750 5747 5745 5743 5740 5738 5737 5735 5733 5732 5726 5721 5719 5720 5722 5721 5719 5717 5714 5713 5712 5707 5706 5705 5704 5703
5775 5775 5776 5776 5774 5773 5771 5769 5766 5764 5761 5758 5756 5755 5752 5749 5746 5742 5740 5738 5736 5734 5733 5731 5730 5727 5725 5719 5715 5711 5715 5716 5715 5714 5712 5709 5707 5702 5698 5697 5698 5698 5698
5768 5766 5767 5766 5763 5762 5762 5759 5757 5755 5752 5750 5748 5747 5744 5742 5739 5736 5734 5732 5730 5728 5727 5726 5724 5722 5719 5714 5710 5705 5710 5710 5710 5709 5707 5702 5699 5694 5690 5690 5690 5690 5691
5757 5757 5755 5754 5753 5753 5751 5749 5748 5745 5745 5743 5741 5738 5736 5734 5732 5730 5727 5725 5723 5721 5719 5718 5718 5716 5714 5709 5704 5700 5702 5704 5702 5703 5702 5700 5691 5686 5683 5681 5683 5683 5681
5746 5746 5744 5742 5742 5742 5740 5737 5736 5736 5735 5734 5731 5729 5727 5727 5726 5722 5719 5718 5715 5714 5712 5711 5710 5711 5709 5704 5699 5694 5691 5691 5693 5693 5695 5692 5683 5679 5676 5676 5675 5674 5672
5736 5737 5735 5733 5732 5732 5730 5727 5726 5726 5725 5723 5721 5720 5719 5718 5716 5714 5712 5710 5708 5708 5707 5706 5705 5705 5704 5699 5693 5688 5685 5682 5683 5686 5682 5678 5674 5672 5672 5670 5668 5667 5668
5726 5726 5725 5723 5722 5722 5721 5719 5717 5716 5714 5712 5712 5711 5710 5709 5708 5706 5706 5704 5702 5701 5699 5697 5696 5696 5694 5692 5687 5683 5679 5675 5675 5676 5673 5669 5667 5666 5665 5664 5664 5663 5663
5716 5715 5713 5711 5710 5709 5709 5709 5707 5704 5703 5702 5701 5701 5702 5701 5697 5697 5696 5695 5694 5691 5687 5688 5687 5686 5684 5682 5675 5673 5673 5672 5669 5667 5667 5668 5667 5664 5662 5661 5659 5658 5656
5705 5703 5702 5701 5699 5698 5697 5697 5695 5694 5692 5691 5691 5692 5692 5691 5690 5689 5687 5684 5682 5679 5675 5673 5671 5675 5671 5668 5666 5663 5661 5659 5657 5657 5662 5661 5660 5658 5656 5653 5652 5650 5649